Location: Kiltepe
(36.4752°N, 30.0120°E)
Time: 09:32:47
(UTC+00:00)

USA 281 - Pass Details

Date: 03 August 2024
Orbit: 1078 x 1081 km, 106.0° (Epoch: 13 September)

Event Time Altitude Azimuth Distance (km) Brightness Sun altitude
Exits shadow 23:55:42 28° 294° (WNW) 1,892 4.4 -30.4°
Drops below altitude 10° 23:59:17 10° 320° (NW) 2,923 5.7 -30.1°
Sets 00:02:03 0° 329° (NNW) 3,883 6.5 -29.8°
